Orbital Elements at Epoch 2459200.5 (2020-Dec-17.0) TDB
Reference: JPL 26 (heliocentric ecliptic J2000)
Element | Value | Uncertainty (1-sigma) | Units |
e | .2383935386649136 | 2.7328e-08 | |
a | 2.344449868744869 | 7.0254e-09 | au |
q | 1.785548168312287 | 6.3297e-08 | au |
i | 4.916295532399364 | 3.5664e-06 | deg |
node | 219.7444892762822 | 3.5084e-05 | deg |
peri | 122.2458884572208 | 3.5776e-05 | deg |
M | 63.65911170889131 | 6.9768e-06 | deg |
tp | 2458968.644220354756 (2020-Apr-29.14422035) | 2.5077e-05 | TDB |
period | 1311.172563229938 3.59 | 5.8936e-06 1.614e-08 | d yr |
n | .2745634023283536 | 1.2341e-09 | deg/d |
Q | 2.903351569177451 | 8.7002e-09 | au |
|
| | Orbit Determination Parameters
Additional Information
|